Temp
72 74 77 77 80 78 78 75 74 73 73 73 72 71 72 71 71 72 70 70 68 69 69 68 69 67 67 67 67 65 66 67
68 63 63 67 65 70 76 73 74 73 72 70 71 69 70 70 73 74 73 72 69 69 69 68 67 67 66 66 65 63 63 64
62 57 56 56 57 59 64 70 73 72 74 74 74 73 72 71 71 72 73 72 71 71 69 68 67 66 66 65 64 62 63 63
50 52 52 53 53 54 58 62 65 71 74 74 71 71 69 67 68 68 69 72 72 72 70 69 67 67 65 65 64 65 62 63
47 48 49 50 51 53 57 61 63 65 68 71 69 69 68 70 69 68 68 71 72 72 69 69 68 67 67 66 67 67 67 63
43 45 47 49 49 51 55 59 59 59 63 65 68 68 72 74 71 68 67 68 69 70 68 67 67 67 68 66 67 67 67 67
42 44 46 46 48 50 53 54 54 56 57 57 58 66 69 67 69 68 68 67 66 66 66 66 66 65 66 66 68 69 67 66
40 40 42 43 44 45 48 49 49 52 53 53 54 55 57 61 69 68 67 66 64 65 65 65 65 65 65 66 65 68 67 68
38 40 40 41 42 43 44 46 46 49 49 50 52 54 55 57 60 63 66 65 66 67 65 66 67 65 65 65 65 65 65 65
37 39 41 42 42 42 42 44 45 47 47 50 50 52 52 53 55 58 63 67 68 68 67 66 67 67 65 64 63 63 63 63
35 37 39 41 42 42 43 43 42 44 45 46 47 48 50 51 53 56 60 64 66 67 67 68 69 68 64 63 62 63 61 62
33 34 37 40 41 41 41 41 42 42 42 44 45 45 47 48 49 50 52 63 64 65 67 67 67 65 63 61 61 62 61 61
32 32 33 35 37 39 39 39 40 41 42 42 42 44 44 45 46 47 48 50 63 63 64 65 67 65 63 60 60 61 60 59
31 32 32 33 35 37 37 38 39 42 42 41 41 41 42 42 43 45 46 47 49 60 62 62 62 62 62 61 60 60 60 60
31 30 31 31 34 35 36 36 38 40 41 39 39 40 40 40 42 42 43 45 45 46 48 59 61 62 61 61 60 60 59 60
30 30 30 31 32 36 36 36 36 38 38 38 37 38 40 41 40 40 41 41 43 44 44 44 43 46 42 42 56 59 58 58
28 29 29 30 31 34 35 35 35 36 36 35 37 38 38 39 39 40 39 39 39 39 39 41 40 41 37 38 41 57 58 57
27 27 27 28 29 33 34 33 35 34 33 33 34 36 36 36 37 37 38 38 37 36 35 37 36 36 37 38 38 50 57 57
26 25 26 27 30 32 34 35 33 32 31 30 32 33 34 35 36 35 35 36 35 34 35 35 35 35 35 36 37 39 38 37
MSLP
1005.66 1004.98 1004.38 1004.03 1003.63 1003.73 1003.95 1004.24 1005.10 1006.42 1007.61 1008.35 1009.08 1009.60 1009.96 1010.15 1009.99 1009.99 1010.79 1011.44 1011.92 1012.46 1012.68 1013.08 1013.65 1014.08 1014.49 1015.05 1015.60 1016.19 1016.51 1016.83
1005.72 1005.57 1005.19 1004.50 1004.33 1003.64 1003.54 1004.10 1004.68 1005.73 1006.83 1007.54 1007.93 1008.23 1008.83 1009.32 1009.51 1009.43 1009.90 1010.67 1011.31 1011.70 1012.14 1012.60 1013.07 1013.55 1013.94 1014.53 1015.11 1015.68 1016.14 1016.56
1006.56 1006.71 1006.31 1005.98 1005.52 1005.00 1004.17 1003.94 1004.00 1004.90 1005.56 1006.07 1006.86 1007.52 1008.07 1008.64 1008.83 1008.90 1009.12 1009.59 1009.98 1010.62 1011.16 1011.63 1012.22 1012.81 1013.44 1013.97 1014.42 1015.01 1015.55 1015.94
1008.15 1007.97 1007.81 1006.97 1006.47 1006.05 1005.38 1004.36 1004.11 1004.24 1004.84 1005.56 1006.46 1007.17 1007.75 1008.12 1008.25 1008.37 1008.61 1009.16 1009.41 1009.53 1010.33 1011.00 1011.24 1011.85 1012.42 1013.08 1013.65 1014.12 1014.65 1015.22
1009.80 1009.17 1008.75 1008.09 1007.36 1006.85 1006.01 1004.89 1004.49 1004.66 1004.56 1004.78 1005.74 1005.94 1006.34 1006.63 1007.03 1007.67 1008.19 1008.64 1008.80 1008.98 1009.36 1010.32 1011.15 1011.39 1011.78 1012.23 1012.83 1013.26 1013.66 1014.19
1010.95 1010.35 1009.90 1009.02 1008.36 1007.75 1006.86 1005.92 1005.35 1005.52 1005.16 1005.10 1005.57 1005.96 1005.87 1006.00 1006.50 1006.97 1007.44 1007.91 1008.56 1008.61 1009.19 1009.91 1010.37 1010.90 1011.31 1011.69 1012.03 1012.44 1012.84 1013.04
1011.82 1011.18 1010.66 1009.78 1009.16 1008.27 1007.58 1006.66 1006.33 1006.24 1006.01 1006.05 1006.10 1006.13 1006.12 1006.48 1006.52 1006.55 1006.65 1007.03 1007.63 1008.12 1008.69 1008.95 1009.61 1010.28 1010.97 1011.29 1011.56 1011.67 1011.92 1012.32
1012.73 1011.77 1011.34 1010.58 1009.81 1009.11 1008.55 1007.44 1007.39 1007.29 1007.20 1007.19 1007.08 1006.87 1007.21 1007.05 1006.55 1006.40 1006.26 1006.58 1006.93 1007.17 1007.49 1007.96 1008.20 1008.58 1009.73 1010.47 1010.93 1011.05 1011.08 1011.40
1013.70 1012.85 1012.36 1011.44 1010.53 1010.04 1009.50 1008.88 1008.70 1008.74 1008.20 1007.91 1007.57 1007.71 1008.40 1007.74 1007.29 1006.80 1006.17 1005.99 1005.99 1006.57 1006.91 1007.26 1007.30 1007.31 1008.19 1009.41 1009.86 1010.36 1010.62 1010.89
1014.52 1013.89 1013.28 1012.40 1011.64 1011.12 1010.53 1010.43 1010.32 1010.10 1009.14 1009.25 1008.07 1009.18 1008.91 1007.91 1007.83 1007.33 1006.48 1005.71 1005.76 1006.03 1006.26 1006.40 1007.04 1006.98 1006.93 1008.13 1008.93 1009.38 1009.81 1010.32
1015.78 1015.16 1014.29 1013.56 1012.93 1012.40 1011.71 1011.39 1011.17 1010.61 1008.52 1008.83 1010.40 1009.26 1008.57 1008.49 1008.26 1007.35 1006.39 1005.88 1005.59 1005.75 1005.84 1005.96 1006.32 1006.62 1006.50 1007.46 1008.20 1008.61 1009.04 1009.49
1017.18 1016.29 1015.39 1014.83 1014.35 1013.65 1013.09 1012.64 1011.93 1011.52 1011.15 1011.73 1011.95 1011.09 1010.27 1009.67 1008.88 1008.09 1007.11 1005.62 1005.18 1005.36 1005.28 1005.50 1005.81 1006.26 1006.20 1006.99 1007.59 1007.81 1008.11 1008.70
1018.12 1017.57 1016.53 1015.75 1015.29 1014.78 1013.80 1013.13 1012.50 1012.81 1012.58 1012.26 1011.68 1011.14 1010.60 1010.09 1009.38 1008.49 1007.61 1006.45 1004.86 1004.92 1005.06 1005.19 1005.40 1005.69 1005.97 1006.38 1006.78 1007.05 1007.31 1007.72
1019.98 1018.37 1017.86 1016.93 1018.03 1016.76 1016.07 1015.42 1015.20 1014.66 1013.78 1013.07 1012.50 1012.14 1011.70 1011.11 1010.15 1009.17 1008.26 1007.22 1006.36 1005.15 1004.83 1004.89 1004.93 1005.06 1005.38 1005.59 1005.81 1006.06 1006.47 1006.76
1020.96 1020.24 1019.55 1018.74 1017.91 1017.29 1016.93 1016.96 1016.17 1014.98 1014.10 1013.63 1013.28 1012.91 1012.42 1011.77 1011.17 1010.30 1009.44 1008.63 1007.77 1007.20 1006.60 1005.37 1005.05 1005.06 1005.24 1005.30 1005.48 1005.57 1005.81 1005.94
1021.80 1021.11 1020.78 1020.20 1019.51 1019.14 1018.37 1017.36 1016.48 1016.12 1015.42 1014.85 1014.52 1014.21 1013.50 1012.78 1012.08 1011.36 1010.85 1010.00 1009.60 1008.95 1008.24 1007.64 1007.39 1007.10 1007.57 1007.09 1005.61 1005.23 1005.52 1005.61
1023.75 1023.24 1022.83 1022.09 1021.12 1020.21 1019.62 1018.65 1018.14 1017.48 1016.71 1016.41 1015.96 1015.40 1014.76 1014.11 1013.41 1012.53 1012.19 1011.42 1010.97 1010.27 1009.86 1009.51 1009.25 1008.97 1008.32 1007.23 1006.53 1005.16 1004.90 1005.11
1025.25 1024.97 1024.49 1023.78 1022.73 1021.68 1020.71 1020.23 1019.63 1018.30 1017.88 1017.57 1017.10 1016.49 1015.85 1015.34 1014.89 1014.22 1013.39 1013.02 1012.61 1011.99 1011.73 1010.64 1010.53 1009.83 1008.55 1007.48 1006.01 1005.54 1004.84 1004.69
1025.89 1025.65 1025.09 1024.46 1023.67 1022.46 1021.60 1020.64 1020.25 1020.00 1019.49 1019.05 1018.53 1017.85 1017.23 1016.61 1016.10 1015.56 1014.99 1014.40 1013.92 1013.48 1012.99 1012.54 1011.88 1011.12 1009.97 1008.48 1007.65 1006.84 1006.56 1006.84
Wind_Speed
20 19 19 17 15 18 20 17 19 18 13 11 10 9 10 10 10 12 14 11 11 10 8 9 10 8 8 8 10 7 6 7
12 7 7 5 1 6 16 16 17 14 13 12 12 13 10 10 11 14 15 14 14 14 9 10 10 10 9 10 7 8 6 6
8 9 9 9 7 6 3 7 16 15 13 12 10 10 10 9 9 12 15 17 17 15 14 13 12 9 11 11 10 5 5 8
9 12 12 10 10 9 5 4 4 11 17 11 8 5 4 8 10 10 12 15 16 17 15 13 14 11 10 12 11 13 8 7
12 12 13 13 12 10 8 7 7 3 6 11 14 11 11 9 9 7 9 16 16 16 14 14 13 9 11 11 11 11 9 8
13 13 13 14 13 11 9 9 12 10 5 3 9 11 9 8 8 10 11 13 12 14 12 13 12 10 12 11 14 13 9 8
13 13 13 14 14 14 13 13 14 13 11 10 10 6 8 7 10 10 10 7 8 11 13 13 11 9 11 11 14 15 13 9
13 15 14 15 17 17 13 16 16 14 13 11 10 9 8 7 10 9 9 7 8 12 14 14 13 15 14 12 12 13 13 12
13 15 14 15 17 18 17 17 16 14 13 13 11 12 6 5 7 8 6 8 10 13 14 14 15 16 14 12 11 11 11 11
16 16 14 15 15 16 16 16 16 14 15 12 14 10 10 9 10 10 7 9 9 12 13 16 16 16 15 14 11 12 11 11
15 15 16 15 15 14 15 15 16 16 19 16 12 13 14 12 11 12 11 9 9 11 14 15 15 14 11 12 11 11 12 10
16 13 16 16 16 16 16 16 18 17 16 13 12 12 13 11 10 12 12 13 8 10 12 13 14 11 11 11 12 12 14 13
13 16 16 18 19 17 18 18 19 17 15 15 15 15 15 14 13 14 14 15 7 9 9 11 13 13 11 13 14 12 15 15
15 19 19 16 13 15 16 15 16 15 14 14 15 16 15 15 15 15 15 15 16 7 6 8 10 11 11 13 15 15 15 15
18 16 17 17 18 20 19 17 16 18 18 17 17 17 17 16 16 16 16 15 16 15 16 8 7 7 9 12 13 14 14 14
21 20 18 18 16 17 18 18 18 17 18 18 18 16 16 16 17 17 16 17 16 15 15 15 16 14 12 12 11 13 12 13
18 19 19 18 18 17 19 19 18 17 19 19 18 18 17 18 17 18 17 18 17 17 18 16 15 10 22 18 10 10 14 14
15 15 15 15 16 15 17 18 17 19 19 18 19 18 18 18 17 17 19 18 16 17 17 17 17 18 28 23 19 5 8 12
14 13 14 15 15 16 15 17 19 19 19 18 18 17 17 17 18 17 16 15 17 16 17 17 16 18 31 26 17 13 12 12
Wind_Direction
290 290 277 264 247 224 214 193 194 197 199 193 201 205 212 212 202 195 191 200 189 195 195 183 190 190 187 187 189 186 198 207
286 315 337 310 291 186 217 201 195 186 191 195 199 209 206 214 219 207 197 198 196 200 199 191 191 195 188 181 180 182 194 181
316 354 6 18 14 358 123 185 194 193 192 197 203 210 215 214 216 214 206 201 192 199 197 196 192 185 189 183 180 169 191 174
2 358 359 10 15 3 355 117 169 206 201 195 187 171 203 193 208 211 210 209 204 200 200 203 191 186 193 194 184 200 190 185
3 6 2 3 5 2 1 42 71 77 229 191 195 202 203 210 205 202 199 213 212 208 195 199 200 192 192 194 186 202 193 189
9 12 6 9 8 9 18 48 52 39 35 348 201 220 227 218 203 201 199 210 215 208 196 192 190 196 204 192 196 197 202 194
16 18 13 18 16 19 24 37 38 33 38 40 32 260 218 215 215 214 211 198 191 200 200 195 186 192 208 198 205 203 197 198
15 19 14 18 20 21 20 29 33 28 31 28 28 21 353 325 250 219 197 196 196 201 190 187 184 187 191 196 205 208 202 205
18 22 17 21 23 22 22 26 24 21 28 22 25 19 346 328 324 308 228 210 213 218 211 213 206 185 180 194 201 209 205 210
18 20 17 21 23 23 25 22 21 14 29 15 24 4 354 351 329 300 287 227 224 216 211 208 208 199 184 185 202 206 200 207
6 13 18 21 24 25 29 27 22 10 26 26 5 2 3 351 333 323 279 262 224 222 217 218 217 206 178 192 202 203 198 202
4 4 18 21 21 25 29 28 26 20 23 23 15 12 5 354 348 341 324 286 230 230 224 221 217 209 187 192 206 206 201 200
1 13 16 20 15 15 23 25 25 20 19 16 15 13 10 3 358 353 345 343 235 228 228 224 223 215 200 201 209 207 204 199
7 20 20 20 8 19 22 28 24 24 26 28 26 20 14 7 3 2 1 357 0 321 220 227 225 220 214 211 212 210 207 207
18 18 15 11 13 17 19 19 18 21 25 24 21 16 15 13 9 11 10 9 12 3 4 317 248 251 231 226 222 217 211 212
16 16 13 11 9 17 18 20 19 19 26 25 20 12 13 16 17 17 15 22 19 18 19 20 19 34 13 340 274 214 215 212
16 15 11 6 8 11 18 21 19 21 28 24 18 17 15 15 14 20 19 24 21 23 21 20 23 10 351 348 334 248 207 206
17 13 13 9 6 8 26 21 17 25 25 21 17 17 17 15 14 16 21 23 22 29 23 19 19 8 1 358 352 333 254 222
15 8 9 12 9 12 16 25 24 23 24 22 16 16 16 16 17 17 17 19 23 23 24 21 21 16 9 8 12 37 40 25